Regional Weather Roundup
Issued by NWS

Home | Current Version | Previous Version | Graphics & Text | Print | Product List | Glossary Off
Versions: 1 2 3 4 5 6 7 8 9 10 11 12 13 14 15 16 17 18 19 20 21 22 23 24 25 26 27 28 29 30 31 32 33 34 35 36 37 38 39 40 41 42 43 44 45 46 47 48 49 50

000
ASUS43 KMKX 060059
RWRWI

WISCONSIN REGIONAL WEATHER ROUNDUP
NATIONAL WEATHER SERVICE MILWAUKEE/SULLIVAN WI
700 PM CST THU MAR 05 2015

NOTE: "FAIR" INDICATES FEW OR NO CLOUDS BELOW 12,000 FEET WITH NO
SIGNIFICANT WEATHER AND/OR OBSTRUCTIONS TO VISIBILITY.

WIZ001-002-006>008-014>016-023>028-060200-
NORTHWEST WISCONSIN

CITY           SKY/WX    TMP DP  RH WIND       PRES   REMARKS
SUPERIOR ARPT  CLEAR     11  -5  49 SW9       30.32F WCI  -2
ASHLAND        CLEAR      8 -10  43 SW9       30.33S WCI  -5
HAYWARD        CLEAR      4 -10  52 S8        30.33S WCI  -9
SIREN          CLEAR      9  -6  50 SW6       30.37S WCI   0
CUMBERLAND     CLEAR      5  -6  61 S9        30.35S WCI  -9
RICE LAKE      CLEAR      7  -5  56 S6        30.40S WCI  -3
CHETEK         CLEAR      6  -7  56 S5        30.39S WCI  -3
LADYSMITH      CLEAR      6 -10  47 S6        30.38S WCI  -5
EAU CLAIRE     NOT AVBL
MENOMONIE      CLEAR      8  -4  57 S6        30.42S WCI  -2
NEW RICHMOND   CLEAR      9  -2  61 S8        30.40R WCI  -3
OSCEOLA        CLEAR      9  -4  56 S6        30.41S WCI  -1
$$

WIZ003>005-009-010-017-018-060200-
NORTH CENTRAL WISCONSIN

CITY           SKY/WX    TMP DP  RH WIND       PRES   REMARKS
MANITOWISH WTR CLEAR      7 -14  37 SW6       30.26S WCI  -3
ARBOR VITAE    CLEAR      9 -11  39 SW5       30.28S WCI   1
WOODRUFF       CLEAR      9 -11  39 SW5       30.28S WCI   1
RHINELANDER    CLEAR      4 -12  48 W7        30.29S WCI  -8
EAGLE RIVER    CLEAR      6 -14  39 SW6       30.26F WCI  -5
LAND O LAKES   CLEAR      8 -14  36 CALM      30.26S
PHILLIPS       CLEAR      4 -12  46 SW6       30.32R WCI  -6
TOMAHAWK       CLEAR      7 -12  41 CALM      30.33R
MEDFORD        FAIR       3 -10  53 SW5       30.35R WCI  -6
MERRILL        CLEAR      5 -11  46 W5        30.36R WCI  -4
$$

WIZ029-030-035-036-043>047-060200-
CENTRAL WISCONSIN

CITY           SKY/WX    TMP DP  RH WIND       PRES   REMARKS
WAUSAU         PTCLDY     6  -9  50 W6        30.37R WCI  -4
MOSINEE        CLEAR      5  -9  51 SW5       30.38S WCI  -4
MARSHFIELD     PTCLDY     6  -9  50 W7        30.38S WCI  -6
STEVENS POINT  PTCLDY     7  -8  50 CALM      30.41R
WAUPACA        CLEAR     11  -5  48 CALM      30.44R
WAUTOMA        NOT AVBL
WISC RAPIDS    PTCLDY    10  -9  42 W6        30.43R WCI   0
CAMP DOUGLAS   NOT AVBL
$$

WIZ011>013-019>022-031-037>040-048>050-060200-
NORTHEAST WISCONSIN

CITY           SKY/WX    TMP DP  RH WIND       PRES   REMARKS
ANTIGO         CLEAR      2  -9  58 SW9       30.33S WCI -12
SHAWANO        CLEAR     12  -7  41 SW7       30.42R WCI   1
OCONTO         CLEAR     11  -7  45 SW8       30.42R WCI  -1
STURGEON BAY   CLEAR      9  -8  47 SW12      30.43R WCI  -6
GREEN BAY      CLEAR      8  -6  52 W5        30.44R WCI   0
MANITOWOC      NOT AVBL
APPLETON       CLEAR     10  -8  44 W7        30.42R WCI   0
CLINTONVILLE   CLEAR     10  -8  44 W6        30.43R WCI   1
OSHKOSH        CLEAR     11  -4  51 SW3       30.44R
$$

WIZ032>034-041-042-053>061-060200-
SOUTHWEST WISCONSIN

CITY           SKY/WX    TMP DP  RH WIND       PRES   REMARKS
LA CROSSE      CLEAR     10  -3  55 S10       30.48R WCI  -4
SPARTA         CLEAR      8  -6  53 W3        30.47R
VIROQUA        CLEAR      6  -5  61 W8        30.42S WCI  -7
BOSCOBEL       PTCLDY    10  -4  53 SW7       30.51S WCI  -1
PRAIRIE DU CHI PTCLDY     8  -5  54 SW3       30.52S
PLATTEVILLE    PTCLDY     6  -5  59 SW7       30.48R WCI  -5
$$

WIZ056-057-062-063-064-067-068-060200-
SOUTH CENTRAL WISCONSIN

CITY           SKY/WX    TMP DP  RH WIND       PRES   REMARKS
REEDSBURG      CLEAR     11  -4  50 W6        30.45S WCI   1
BARABOO/DELLS  CLEAR     10  -6  47 W3        30.44S
LONE ROCK      NOT AVBL
MINERAL POINT  PTCLDY     9  -6  52 CALM      30.45F
MADISON        CLEAR     10  -4  53 SW6       30.47S WCI   0
MIDDLETON      CLEAR     12  -5  45 SW8       30.47R WCI   0
WATERTOWN      CLEAR     10  -3  58 SW6       30.47R WCI   0
MONROE         PTCLDY     9  -2  61 W12       30.46S WCI  -6
JANESVILLE     CLEAR      9  -6  52 SW6       30.50S WCI  -1
$$

WIZ051-052-058>065-066-070>072-060200-
SOUTHEAST WISCONSIN

CITY           SKY/WX    TMP DP  RH WIND       PRES   REMARKS
MILWAUKEE      CLEAR     13  -6  42 W6        30.49S WCI   4
WAUKESHA       CLEAR      9  -6  52 SW6       30.48R WCI  -1
MILWAUKEE/TIMM CLEAR     10  -6  48 SW6       30.49S WCI   1
RACINE         PTCLDY    10  -6  48 SW6       30.52R WCI   0
BURLINGTON     CLEAR      4  -8  58 SW6       30.50R WCI  -7
KENOSHA        PTCLDY     5  -7  57 W8        30.50R WCI  -8
FOND DU LAC    CLEAR     11  -4  51 SW6       30.45R WCI   1
SHEBOYGAN      CLEAR      6  -6  57 SW7       30.46R WCI  -6
WEST BEND      CLEAR     12  -4  48 SW5       30.45S WCI   4
JUNEAU         CLEAR      9  -3  59 SW6       30.47R WCI  -1
$$

LSZ147-162-060200-
LAKE SUPERIOR

STATION/POSITION TIME  TEMP    WIND        PRES    WAVE
                       AIR SEA DIR/SP/G            HT/PER
                 (UTC) (F)     (DEG/KT/KT) (MB)    (FT/S)
DEVILS ISLAND    0000   13     210/ 10/ 14 1027.6F
PORT WING        0040   12     200/  9/ 13 1026.8S
SAXON HARBOR     0000   15     210/  6/ 12 1026.8F
$$

LMZ867-665-643>646-060200-
LAKE MICHIGAN

STATION/POSITION TIME  TEMP    WIND        PRES    WAVE
                       AIR SEA DIR/SP/G            HT/PER
                 (UTC) (F)     (DEG/KT/KT) (MB)    (FT/S)
NORTHPORT PIER   0019   12     180/  3/ 10 1029.1R
KEWAUNEE LAKESHO 0000   12     240/  5/  7 1029.5R
SHEBOYGAN LAKESH 0000   14     250/  8/  9 1033.4R
PORT WASHINGTON  0000   14     260/  5/  8 1032.5R
MILWAUKEE LAKESH 0000   15     290/  8/ 10   N/A
KENOSHA   LAKESH 0000   13     270/  5/  9 1032.8R
$$

TC  - TEMPERATURE IN CELSIUS
VSB - VISIBILITY IN STATUTE MILES
WCI - WIND CHILL INDEX
HX  - HEAT INDEX



USA.gov is the U.S. government's official web portal to all federal, state and local government web resources and services.